AFV238 FZAA-FQMA

Flight info

Callsign AFV238
Flight time N/A
Altitude 37000
Route RUVIL2B RUVIL UG652 GADBA UM652 MENSO G652 VBR UW15 VL UW19 EPROS
Aircraft B738/M-SDE2E3FGHIRWXY/LB1

Departure

Time N/A
Airport Ndjili International Airport (FZAA)

Arrival

Time 2026-04-12 12:24
Airport Maputo Airport (FQMA)
Time Latitude Longitude Altitude Speed Heading
2026-04-12 10:05 -14.87365 22.52271 36999 ft 445 kts 156°
2026-04-12 10:05 -14.93023 22.54826 36999 ft 445 kts 156°
2026-04-12 10:06 -14.98681 22.57381 36999 ft 445 kts 156°
2026-04-12 10:06 -15.04353 22.59944 36999 ft 445 kts 156°
2026-04-12 10:07 -15.09999 22.62497 36999 ft 445 kts 156°
2026-04-12 10:07 -15.15640 22.65050 37000 ft 445 kts 156°
2026-04-12 10:08 -15.21288 22.67608 36999 ft 445 kts 156°
2026-04-12 10:08 -15.26956 22.70175 36999 ft 445 kts 156°
2026-04-12 10:09 -15.32617 22.72741 36999 ft 445 kts 156°
2026-04-12 10:09 -15.38250 22.75297 36999 ft 445 kts 156°
2026-04-12 10:10 -15.43893 22.77857 37000 ft 445 kts 156°
2026-04-12 10:10 -15.49555 22.80428 37000 ft 445 kts 156°
2026-04-12 10:11 -15.55205 22.82996 37000 ft 445 kts 156°
2026-04-12 10:11 -15.60825 22.85551 37000 ft 445 kts 156°
2026-04-12 10:12 -15.66513 22.88059 36999 ft 445 kts 158°
2026-04-12 10:12 -15.72260 22.90406 37000 ft 445 kts 158°
2026-04-12 10:13 -15.77992 22.92768 36999 ft 445 kts 158°
2026-04-12 10:13 -15.83728 22.95138 37000 ft 445 kts 158°
2026-04-12 10:14 -15.89454 22.97508 37000 ft 445 kts 158°
2026-04-12 10:14 -15.95175 22.99879 37000 ft 445 kts 158°
2026-04-12 10:15 -16.00900 23.02253 37000 ft 445 kts 158°
2026-04-12 10:15 -16.06665 23.04646 37000 ft 445 kts 158°
2026-04-12 10:16 -16.12390 23.07024 37000 ft 445 kts 158°
2026-04-12 10:16 -16.18100 23.09397 36999 ft 445 kts 158°
2026-04-12 10:17 -16.23824 23.11777 37000 ft 445 kts 158°
2026-04-12 10:17 -16.29549 23.14160 37000 ft 445 kts 158°
2026-04-12 10:18 -16.35260 23.16538 37000 ft 445 kts 158°
2026-04-12 10:18 -16.41011 23.18934 37000 ft 445 kts 158°
2026-04-12 10:19 -16.46723 23.21317 37000 ft 445 kts 158°
2026-04-12 10:19 -16.52428 23.23697 37000 ft 445 kts 158°
2026-04-12 10:20 -16.58146 23.26085 36999 ft 445 kts 158°
2026-04-12 10:20 -16.63870 23.28476 37000 ft 445 kts 158°
2026-04-12 10:21 -16.69595 23.30870 36999 ft 445 kts 158°
2026-04-12 10:21 -16.75337 23.33272 36999 ft 445 kts 158°
2026-04-12 10:22 -16.81057 23.35666 36999 ft 445 kts 158°
2026-04-12 10:22 -16.86769 23.38058 36999 ft 445 kts 158°
2026-04-12 10:23 -16.92481 23.40452 36999 ft 445 kts 158°
2026-04-12 10:23 -16.98217 23.42858 36999 ft 445 kts 158°
2026-04-12 10:24 -17.03930 23.45255 36999 ft 445 kts 158°
2026-04-12 10:24 -17.09651 23.47658 36999 ft 445 kts 158°
2026-04-12 10:25 -17.15376 23.50063 37000 ft 445 kts 158°
2026-04-12 10:25 -17.21092 23.52467 37000 ft 445 kts 158°
2026-04-12 10:26 -17.26813 23.54874 37000 ft 445 kts 158°
2026-04-12 10:26 -17.32503 23.57270 36999 ft 445 kts 158°
2026-04-12 10:27 -17.38244 23.59689 37000 ft 445 kts 158°
2026-04-12 10:27 -17.43949 23.62095 37000 ft 445 kts 158°
2026-04-12 10:28 -17.49688 23.64517 37000 ft 445 kts 158°
2026-04-12 10:28 -17.55379 23.66919 37000 ft 445 kts 158°
2026-04-12 10:29 -17.61093 23.69409 36999 ft 445 kts 156°
2026-04-12 10:29 -17.66689 23.72028 36999 ft 445 kts 156°
2026-04-12 10:30 -17.72325 23.74648 37000 ft 445 kts 156°
2026-04-12 10:30 -17.77970 23.77270 37000 ft 445 kts 156°
2026-04-12 10:31 -17.83627 23.79898 37000 ft 445 kts 156°
2026-04-12 10:31 -17.89229 23.82501 37000 ft 445 kts 156°
2026-04-12 10:32 -17.94920 23.85029 37000 ft 445 kts 157°
2026-04-12 10:32 -18.00611 23.87489 36999 ft 445 kts 157°
2026-04-12 10:33 -18.06311 23.89966 37000 ft 445 kts 157°
2026-04-12 10:33 -18.12003 23.92443 37000 ft 445 kts 157°
2026-04-12 10:34 -18.17732 23.94939 37000 ft 445 kts 157°
2026-04-12 10:34 -18.23384 23.97405 37000 ft 445 kts 157°
2026-04-12 10:35 -18.29119 23.99909 37000 ft 445 kts 157°
2026-04-12 10:35 -18.34946 24.02057 36999 ft 444 kts 166°
2026-04-12 10:36 -18.40962 24.03577 37000 ft 445 kts 166°
2026-04-12 10:36 -18.47005 24.05093 36999 ft 445 kts 166°
2026-04-12 10:37 -18.52990 24.06577 36999 ft 445 kts 166°
2026-04-12 10:37 -18.59039 24.08070 37000 ft 445 kts 166°
2026-04-12 10:38 -18.65059 24.09551 37000 ft 445 kts 167°
2026-04-12 10:38 -18.71077 24.11031 37000 ft 445 kts 167°
2026-04-12 10:39 -18.77088 24.12508 37000 ft 445 kts 167°
2026-04-12 10:39 -18.83110 24.13988 36999 ft 445 kts 167°
2026-04-12 10:40 -18.89129 24.15468 37000 ft 445 kts 167°
2026-04-12 10:40 -18.95165 24.16954 36999 ft 445 kts 167°
2026-04-12 10:41 -19.01202 24.18441 36999 ft 445 kts 167°
2026-04-12 10:41 -19.07215 24.19923 36999 ft 445 kts 167°
2026-04-12 10:42 -19.13241 24.21409 36999 ft 445 kts 167°
2026-04-12 10:42 -19.19285 24.22900 37000 ft 445 kts 167°
2026-04-12 10:43 -19.28298 24.25126 37000 ft 445 kts 167°
2026-04-12 10:43 -19.34307 24.26611 37000 ft 445 kts 167°
2026-04-12 10:44 -19.40341 24.28104 37000 ft 445 kts 167°
2026-04-12 10:44 -19.46392 24.29602 36999 ft 445 kts 167°
2026-04-12 10:45 -19.52394 24.31090 37000 ft 445 kts 167°
2026-04-12 10:45 -19.58241 24.32540 37000 ft 445 kts 167°
2026-04-12 10:46 -19.64290 24.34041 36999 ft 445 kts 167°
2026-04-12 10:46 -19.70285 24.35530 36999 ft 445 kts 167°
2026-04-12 10:47 -19.76312 24.37027 37000 ft 445 kts 167°
2026-04-12 10:47 -19.82349 24.38529 36999 ft 445 kts 167°
2026-04-12 10:48 -19.88366 24.40027 36999 ft 445 kts 167°
2026-04-12 10:48 -19.94373 24.41523 36999 ft 445 kts 167°
2026-04-12 10:49 -20.00399 24.43026 36999 ft 445 kts 167°
2026-04-12 10:49 -20.06452 24.44536 36999 ft 445 kts 167°
2026-04-12 10:50 -20.12470 24.46038 36999 ft 445 kts 167°
2026-04-12 10:50 -20.18490 24.47543 37000 ft 445 kts 167°
2026-04-12 10:51 -20.24514 24.49050 37000 ft 445 kts 167°
2026-04-12 10:51 -20.30543 24.50559 37000 ft 445 kts 167°
2026-04-12 10:52 -20.36546 24.52063 37000 ft 445 kts 167°
2026-04-12 10:52 -20.42591 24.53578 36999 ft 445 kts 167°
2026-04-12 10:53 -20.48604 24.55086 37000 ft 445 kts 167°
2026-04-12 10:53 -20.54589 24.56588 37000 ft 445 kts 167°
2026-04-12 10:54 -20.60631 24.58107 37000 ft 445 kts 167°
2026-04-12 10:54 -20.66636 24.59617 37000 ft 445 kts 167°
2026-04-12 10:55 -20.72674 24.61137 36999 ft 445 kts 167°
2026-04-12 10:55 -20.78651 24.62643 36999 ft 445 kts 167°
2026-04-12 10:56 -20.84699 24.64168 36999 ft 445 kts 167°
2026-04-12 10:56 -20.90711 24.65686 37000 ft 445 kts 166°
2026-04-12 10:57 -20.96740 24.67208 37000 ft 445 kts 166°
2026-04-12 10:57 -21.02740 24.68724 36999 ft 445 kts 166°
2026-04-12 10:58 -21.08767 24.70249 37000 ft 445 kts 166°
2026-04-12 10:58 -21.14792 24.71774 36999 ft 445 kts 166°
2026-04-12 10:59 -21.20791 24.73294 37000 ft 445 kts 166°
2026-04-12 10:59 -21.26836 24.74827 37000 ft 445 kts 166°
2026-04-12 11:00 -21.32842 24.76352 36999 ft 445 kts 166°
2026-04-12 11:00 -21.38861 24.77881 37000 ft 445 kts 166°
2026-04-12 11:01 -21.44858 24.79405 37000 ft 445 kts 166°
2026-04-12 11:01 -21.50877 24.80936 37000 ft 445 kts 166°
2026-04-12 11:02 -21.56907 24.82472 37000 ft 445 kts 166°
2026-04-12 11:02 -21.62942 24.84010 36999 ft 445 kts 166°
2026-04-12 11:03 -21.68955 24.85543 37000 ft 445 kts 166°
2026-04-12 11:03 -21.74954 24.87076 37000 ft 445 kts 166°
2026-04-12 11:04 -21.80991 24.88618 37000 ft 445 kts 166°
2026-04-12 11:04 -21.87003 24.90156 37000 ft 445 kts 166°
2026-04-12 11:05 -21.93022 24.91696 36999 ft 445 kts 166°
2026-04-12 11:05 -21.99056 24.93242 37000 ft 445 kts 166°
2026-04-12 11:06 -22.05041 24.94777 37000 ft 445 kts 166°
2026-04-12 11:06 -22.11085 24.96328 37000 ft 445 kts 166°
2026-04-12 11:07 -22.17107 24.97876 37000 ft 445 kts 166°
2026-04-12 11:07 -22.23125 24.99423 36999 ft 445 kts 166°
2026-04-12 11:08 -22.29104 25.00961 37000 ft 445 kts 166°
2026-04-12 11:08 -22.35128 25.02512 37000 ft 445 kts 166°
2026-04-12 11:09 -22.41120 25.04057 37000 ft 445 kts 166°
2026-04-12 11:09 -22.47150 25.05612 36999 ft 445 kts 166°
2026-04-12 11:10 -22.53152 25.07163 37000 ft 445 kts 166°
2026-04-12 11:10 -22.59160 25.08716 37000 ft 445 kts 166°
2026-04-12 11:11 -22.65209 25.10281 37000 ft 445 kts 166°
2026-04-12 11:11 -22.71180 25.11828 37000 ft 445 kts 166°
2026-04-12 11:12 -22.77205 25.13389 36999 ft 445 kts 166°
2026-04-12 11:12 -22.83213 25.14946 37000 ft 445 kts 166°
2026-04-12 11:13 -22.89234 25.16509 37000 ft 445 kts 166°
2026-04-12 11:13 -22.95269 25.18077 37000 ft 445 kts 166°
2026-04-12 11:14 -23.01251 25.19634 36999 ft 445 kts 166°
2026-04-12 11:14 -23.07288 25.21205 36999 ft 445 kts 166°
2026-04-12 11:15 -23.13263 25.22762 37000 ft 445 kts 166°
2026-04-12 11:15 -23.19323 25.24342 37000 ft 445 kts 166°
2026-04-12 11:16 -23.25288 25.25899 37000 ft 445 kts 166°
2026-04-12 11:16 -23.31179 25.27873 36988 ft 444 kts 149°
2026-04-12 11:17 -23.33527 25.30032 36997 ft 443 kts 128°
2026-04-12 11:17 -23.34995 25.32939 37007 ft 444 kts 109°
2026-04-12 11:17 -23.36485 25.39487 36993 ft 445 kts 93°
2026-04-12 11:18 -23.36161 25.46117 37001 ft 445 kts 85°
2026-04-12 11:18 -23.35694 25.52794 36998 ft 445 kts 86°
2026-04-12 11:19 -23.35260 25.59502 36999 ft 444 kts 86°
2026-04-12 11:19 -23.34830 25.66227 36999 ft 445 kts 85°
2026-04-12 11:20 -23.34407 25.72893 36999 ft 445 kts 85°
2026-04-12 11:20 -23.34053 25.78478 36999 ft 445 kts 85°
2026-04-12 11:21 -23.33589 25.85754 36999 ft 445 kts 85°
2026-04-12 11:21 -23.33160 25.92457 36999 ft 445 kts 85°
2026-04-12 11:22 -23.32729 25.99155 37000 ft 445 kts 85°
2026-04-12 11:22 -23.32297 26.05837 36999 ft 445 kts 85°
2026-04-12 11:23 -23.31861 26.12544 37000 ft 445 kts 85°
2026-04-12 11:23 -23.31422 26.19235 37000 ft 445 kts 85°
2026-04-12 11:24 -23.30980 26.25937 37000 ft 445 kts 85°
2026-04-12 11:24 -23.30536 26.32620 37000 ft 445 kts 85°
2026-04-12 11:25 -23.30088 26.39322 36999 ft 445 kts 85°
2026-04-12 11:25 -23.29635 26.46060 37000 ft 445 kts 85°
2026-04-12 11:26 -23.29182 26.52763 37000 ft 445 kts 85°
2026-04-12 11:26 -23.28726 26.59459 37000 ft 445 kts 85°
2026-04-12 11:27 -23.28277 26.66010 36999 ft 445 kts 85°
2026-04-12 11:27 -23.27814 26.72731 36999 ft 445 kts 85°
2026-04-12 11:28 -23.27346 26.79474 36999 ft 445 kts 85°
2026-04-12 11:28 -23.26877 26.86190 36999 ft 445 kts 85°
2026-04-12 11:29 -23.26406 26.92894 36999 ft 445 kts 85°
2026-04-12 11:29 -23.25930 26.99638 37000 ft 445 kts 85°
2026-04-12 11:30 -23.25455 27.06302 37000 ft 445 kts 85°
2026-04-12 11:30 -23.24974 27.13036 37000 ft 445 kts 85°
2026-04-12 11:31 -23.24491 27.19743 37000 ft 445 kts 85°
2026-04-12 11:31 -23.24007 27.26432 37000 ft 445 kts 85°
2026-04-12 11:32 -23.23517 27.33169 37000 ft 445 kts 85°
2026-04-12 11:32 -23.23025 27.39889 37000 ft 445 kts 85°
2026-04-12 11:33 -23.22531 27.46592 37000 ft 445 kts 85°
2026-04-12 11:33 -23.22034 27.53291 37000 ft 445 kts 85°
2026-04-12 11:34 -23.21979 27.60010 36997 ft 444 kts 98°
2026-04-12 11:34 -23.23760 27.66439 36998 ft 444 kts 117°
2026-04-12 11:35 -23.27130 27.72080 37002 ft 445 kts 124°
2026-04-12 11:35 -23.30598 27.77614 36999 ft 445 kts 124°
2026-04-12 11:36 -23.34078 27.83182 36999 ft 444 kts 124°
2026-04-12 11:36 -23.37562 27.88758 36999 ft 444 kts 124°
2026-04-12 11:37 -23.41043 27.94331 36999 ft 445 kts 124°
2026-04-12 11:37 -23.44513 27.99892 37000 ft 445 kts 124°
2026-04-12 11:38 -23.47993 28.05474 36999 ft 445 kts 124°
2026-04-12 11:38 -23.51465 28.11047 37000 ft 445 kts 124°
2026-04-12 11:39 -23.54957 28.16659 36999 ft 445 kts 124°
2026-04-12 11:39 -23.58417 28.22226 37000 ft 445 kts 124°
2026-04-12 11:40 -23.61892 28.27822 37000 ft 445 kts 124°
2026-04-12 11:40 -23.65339 28.33378 36999 ft 445 kts 124°
2026-04-12 11:41 -23.68783 28.38939 36999 ft 445 kts 124°
2026-04-12 11:41 -23.72231 28.44509 36999 ft 445 kts 124°
2026-04-12 11:42 -23.75703 28.50127 36999 ft 445 kts 124°
2026-04-12 11:43 -23.80874 28.58504 36999 ft 445 kts 124°
2026-04-12 11:43 -23.84306 28.64057 36999 ft 445 kts 124°
2026-04-12 11:44 -23.87796 28.69641 37000 ft 445 kts 124°
2026-04-12 11:44 -23.91268 28.75206 37000 ft 445 kts 124°
2026-04-12 11:45 -23.94739 28.80776 37000 ft 445 kts 124°
2026-04-12 11:45 -23.98205 28.86349 37000 ft 445 kts 124°
2026-04-12 11:46 -24.01690 28.91956 37000 ft 445 kts 124°
2026-04-12 11:46 -24.05140 28.97515 37000 ft 445 kts 124°
2026-04-12 11:47 -24.08610 29.03111 37000 ft 445 kts 124°
2026-04-12 11:47 -24.12119 29.08723 37000 ft 445 kts 124°
2026-04-12 11:48 -24.15594 29.14275 36999 ft 445 kts 124°
2026-04-12 11:48 -24.19105 29.19893 37000 ft 445 kts 124°
2026-04-12 11:49 -24.22582 29.25464 37000 ft 445 kts 124°
2026-04-12 11:49 -24.26080 29.31075 37000 ft 445 kts 124°
2026-04-12 11:50 -24.29567 29.36676 37000 ft 445 kts 124°
2026-04-12 11:50 -24.33042 29.42263 37000 ft 445 kts 124°
2026-04-12 11:51 -24.36535 29.47887 37000 ft 445 kts 124°
2026-04-12 11:51 -24.40017 29.53499 37000 ft 445 kts 124°
2026-04-12 11:52 -24.43482 29.59089 37000 ft 445 kts 124°
2026-04-12 11:52 -24.46977 29.64734 36999 ft 445 kts 124°
2026-04-12 11:53 -24.50453 29.70343 37000 ft 445 kts 124°
2026-04-12 11:53 -24.53936 29.75918 37000 ft 445 kts 124°
2026-04-12 11:54 -24.57444 29.81542 37000 ft 445 kts 124°
2026-04-12 11:54 -24.60940 29.87155 37000 ft 445 kts 124°
2026-04-12 11:55 -24.64432 29.92768 36999 ft 445 kts 124°
2026-04-12 11:55 -24.67931 29.98400 37000 ft 445 kts 124°
2026-04-12 11:56 -24.71409 30.04002 37000 ft 445 kts 124°
2026-04-12 11:56 -24.74907 30.09607 37000 ft 445 kts 124°
2026-04-12 11:57 -24.78445 30.15227 36999 ft 445 kts 124°
2026-04-12 11:57 -24.81940 30.20793 36999 ft 445 kts 124°
2026-04-12 11:58 -24.85456 30.26399 36999 ft 445 kts 124°
2026-04-12 11:58 -24.88968 30.32009 36999 ft 445 kts 124°
2026-04-12 11:59 -24.92483 30.37628 36999 ft 445 kts 124°
2026-04-12 11:59 -24.96000 30.43257 36999 ft 445 kts 124°
2026-04-12 12:00 -24.99499 30.48863 36999 ft 445 kts 124°
2026-04-12 12:00 -25.03005 30.54488 36999 ft 445 kts 124°
2026-04-12 12:01 -25.06525 30.60142 36999 ft 445 kts 124°
2026-04-12 12:01 -25.10009 30.65746 36999 ft 445 kts 124°
2026-04-12 12:02 -25.13524 30.71406 36999 ft 445 kts 124°
2026-04-12 12:02 -25.17009 30.77023 36999 ft 445 kts 124°
2026-04-12 12:03 -25.20508 30.82669 36999 ft 445 kts 124°
2026-04-12 12:03 -25.24007 30.88325 36999 ft 445 kts 124°
2026-04-12 12:04 -25.27491 30.93961 36997 ft 440 kts 124°
2026-04-12 12:04 -25.30926 30.99522 37000 ft 436 kts 124°
2026-04-12 12:05 -25.34320 31.05024 37000 ft 437 kts 124°
2026-04-12 12:05 -25.37837 31.10526 36998 ft 437 kts 129°
2026-04-12 12:06 -25.41948 31.15510 37000 ft 437 kts 133°
2026-04-12 12:06 -25.46092 31.20397 37000 ft 437 kts 133°
2026-04-12 12:07 -25.50265 31.25303 37000 ft 437 kts 133°
2026-04-12 12:07 -25.54422 31.30180 36911 ft 439 kts 133°
2026-04-12 12:07 -25.56496 31.32616 36370 ft 444 kts 133°
2026-04-12 12:08 -25.58629 31.35118 35689 ft 441 kts 133°
2026-04-12 12:08 -25.60696 31.37542 34946 ft 439 kts 133°
2026-04-12 12:08 -25.62777 31.39982 34197 ft 437 kts 133°
2026-04-12 12:08 -25.64836 31.42399 33452 ft 435 kts 133°
2026-04-12 12:09 -25.66913 31.44837 32696 ft 433 kts 133°
2026-04-12 12:09 -25.68964 31.47245 31945 ft 430 kts 133°
2026-04-12 12:09 -25.70994 31.49629 31197 ft 427 kts 133°
2026-04-12 12:09 -25.73003 31.51991 30452 ft 425 kts 133°
2026-04-12 12:10 -25.75018 31.54360 29699 ft 422 kts 133°
2026-04-12 12:10 -25.77016 31.56709 28948 ft 419 kts 133°
2026-04-12 12:10 -25.78967 31.59005 28209 ft 416 kts 133°
2026-04-12 12:10 -25.80941 31.61330 27455 ft 413 kts 133°
2026-04-12 12:11 -25.82887 31.63622 26707 ft 410 kts 133°
2026-04-12 12:11 -25.84836 31.65919 25951 ft 406 kts 133°
2026-04-12 12:11 -25.86752 31.68177 25203 ft 403 kts 133°
2026-04-12 12:11 -25.88627 31.70448 24453 ft 400 kts 130°
2026-04-12 12:12 -25.90290 31.72884 23701 ft 397 kts 122°
2026-04-12 12:12 -25.91492 31.75623 22944 ft 393 kts 108°
2026-04-12 12:12 -25.92161 31.78540 22199 ft 390 kts 100°
2026-04-12 12:12 -25.92469 31.81497 21448 ft 386 kts 91°
2026-04-12 12:13 -25.92364 31.84465 20698 ft 383 kts 85°
2026-04-12 12:13 -25.92172 31.87397 19946 ft 380 kts 86°
2026-04-12 12:13 -25.92006 31.90282 19201 ft 377 kts 86°
2026-04-12 12:13 -25.91914 31.93164 18448 ft 374 kts 92°
2026-04-12 12:14 -25.92242 31.96011 17694 ft 371 kts 102°
2026-04-12 12:14 -25.93012 31.98711 16943 ft 367 kts 114°
2026-04-12 12:14 -25.94219 32.01181 16197 ft 364 kts 122°
2026-04-12 12:14 -25.95571 32.03529 15450 ft 361 kts 122°
2026-04-12 12:15 -25.96912 32.05876 14695 ft 358 kts 122°
2026-04-12 12:15 -25.98239 32.08212 13940 ft 355 kts 122°
2026-04-12 12:15 -25.99540 32.10497 13195 ft 353 kts 122°
2026-04-12 12:15 -26.00843 32.12785 12443 ft 350 kts 122°
2026-04-12 12:16 -26.02143 32.15068 11687 ft 347 kts 122°
2026-04-12 12:16 -26.03419 32.17310 10938 ft 344 kts 122°
2026-04-12 12:16 -26.04677 32.19521 10194 ft 342 kts 122°
2026-04-12 12:16 -26.05939 32.21740 9442 ft 339 kts 122°
2026-04-12 12:17 -26.07189 32.23938 8690 ft 336 kts 122°
2026-04-12 12:17 -26.08430 32.26122 7938 ft 333 kts 122°
2026-04-12 12:17 -26.09659 32.28286 7188 ft 331 kts 122°
2026-04-12 12:17 -26.10872 32.30422 6543 ft 325 kts 122°
2026-04-12 12:18 -26.12056 32.32508 5921 ft 320 kts 122°
2026-04-12 12:18 -26.13236 32.34588 5292 ft 315 kts 122°
2026-04-12 12:18 -26.14390 32.36625 4679 ft 310 kts 121°
2026-04-12 12:18 -26.15258 32.38781 4099 ft 305 kts 103°
2026-04-12 12:19 -26.15278 32.41090 3525 ft 300 kts 76°
2026-04-12 12:19 -26.14339 32.43124 2950 ft 295 kts 50°
2026-04-12 12:19 -26.12798 32.44568 2383 ft 292 kts 31°
2026-04-12 12:19 -26.11043 32.45647 2026 ft 281 kts 28°
2026-04-12 12:20 -26.09396 32.46650 2011 ft 259 kts 28°
2026-04-12 12:20 -26.07971 32.47525 2020 ft 241 kts 29°
2026-04-12 12:20 -26.06773 32.48261 2024 ft 226 kts 29°
2026-04-12 12:20 -26.05210 32.49222 2034 ft 204 kts 29°
2026-04-12 12:21 -26.04062 32.49929 2047 ft 176 kts 28°
2026-04-12 12:21 -26.03046 32.50555 2031 ft 169 kts 28°
2026-04-12 12:21 -26.02043 32.51171 2019 ft 165 kts 28°
2026-04-12 12:21 -26.01037 32.51778 2000 ft 164 kts 28°
2026-04-12 12:22 -26.00034 32.52387 2011 ft 164 kts 28°
2026-04-12 12:22 -25.99046 32.52999 1890 ft 164 kts 29°
2026-04-12 12:22 -25.98049 32.53615 1747 ft 161 kts 28°
2026-04-12 12:22 -25.97101 32.54182 1555 ft 153 kts 27°
2026-04-12 12:23 -25.96168 32.54750 1307 ft 154 kts 30°
2026-04-12 12:23 -25.95251 32.55359 1031 ft 156 kts 30°
2026-04-12 12:23 -25.94344 32.55883 701 ft 136 kts 26°
2026-04-12 12:23 -25.93506 32.56380 440 ft 141 kts 28°
2026-04-12 12:24 -25.92658 32.56904 205 ft 140 kts 28°
2026-04-12 12:24 -25.91880 32.57379 136 ft 117 kts 28°
2026-04-12 12:24 -25.91376 32.57685 138 ft 62 kts 30°
2026-04-12 12:24 -25.91106 32.57853 141 ft 28 kts 30°
2026-04-12 12:25 -25.91018 32.57950 143 ft 13 kts 112°
2026-04-12 12:25 -25.91086 32.57992 143 ft 10 kts 165°
2026-04-12 12:25 -25.91145 32.58011 143 ft 7 kts 164°
2026-04-12 12:25 -25.91188 32.58009 143 ft 9 kts 198°
2026-04-12 12:26 -25.91295 32.57949 142 ft 25 kts 210°
2026-04-12 12:26 -25.91478 32.57835 140 ft 32 kts 208°
2026-04-12 12:26 -25.91641 32.57735 138 ft 23 kts 209°
2026-04-12 12:26 -25.91757 32.57663 137 ft 20 kts 208°
2026-04-12 12:27 -25.91909 32.57571 137 ft 28 kts 208°
2026-04-12 12:27 -25.92115 32.57450 137 ft 36 kts 209°
2026-04-12 12:27 -25.92293 32.57340 139 ft 17 kts 210°
2026-04-12 12:27 -25.92372 32.57317 139 ft 9 kts 148°
2026-04-12 12:28 -25.92396 32.57352 141 ft 2 kts 118°
2026-04-12 12:28 -25.92397 32.57355 141 ft 0 kts 118°